Location: Newark
(30.9333°N, 122.8333°E)
Time: 03:05:48
(UTC+00:00)

N. Korean satellite - Visible Passes

Search period start: 27 January 2020 00:00
Search period end: 06 February 2020 00:00
Orbit: 454 x 507 km, 97.2° (Epoch: 26 January)

Date Brightness Start Highest point End Pass type
(mag) Time Alt. Az. Time Alt. Az. Time Alt. Az.
27 Jan 9.7 20:41:31 10° ENE 20:43:47 16° E 20:46:04 10° SE visible
27 Jan 7.8 22:14:14 10° NNW 22:17:03 22° WNW 22:19:54 10° SW visible
28 Jan 6.7 21:48:10 10° N 21:51:41 49° WNW 21:55:14 10° SSW visible
29 Jan 10.0 09:53:20 10° WSW 09:55:00 13° W 09:56:38 10° WNW visible
29 Jan 7.0 21:22:37 10° NNE 21:26:14 65° E 21:29:53 10° S visible
30 Jan 8.8 20:57:34 10° NE 21:00:42 27° E 21:03:52 10° SSE visible
31 Jan 10.1 20:33:33 10° ENE 20:35:06 12° E 20:36:40 10° ESE visible
31 Jan 7.5 22:05:19 10° NNW 22:08:28 28° WNW 22:11:39 10° SW visible
01 Feb 6.5 21:39:26 10° N 21:43:04 68° WNW 21:46:44 10° SSW visible
02 Feb 9.7 09:43:57 10° SW 09:46:16 17° W 09:48:36 10° NW visible
02 Feb 7.6 21:14:02 10° NNE 21:17:35 48° E 21:21:10 10° S visible
03 Feb 9.3 20:49:11 10° NE 20:52:02 21° E 20:54:53 10° SSE visible
04 Feb 7.1 21:56:27 10° N 21:59:51 37° WNW 22:03:17 10° SW visible
05 Feb 6.6 21:30:44 10° N 21:34:26 89° ESE 21:38:08 10° SSW visible
